Munising, MI

8:45 PM EDT on April 29, 2017 (GMT -0400)
Munising

Weather History for KP53 - August, 2013

Change the Weather History Date:

Tuesday, August 20, 2013

  Actual Average (KISQ) Record (KISQ)
Temperature  
Mean Temperature 78 °F -  
Max Temperature 88 °F 72 °F 86 °F (1955)
Min Temperature 68 °F 52 °F 39 °F (1956)
Cooling Degree Days 12    
Growing Degree Days 28 (Base 50)    
Moisture  
Dew Point 62 °F    
Average Humidity 62    
Maximum Humidity 78    
Minimum Humidity 43    
Precipitation  
Precipitation 0.00 in - - ()
Sea Level Pressure  
Sea Level Pressure 29.93 in    
Wind  
Wind Speed 9 mph (SSW)    
Max Wind Speed 16 mph    
Max Gust Speed 23 mph    
Averages and records for this station are not official NWS values.
T = Trace of Precipitation, MM = Missing Value Source: NWS Daily Summary

Daily Weather History Graph

Daily Weather History Graph

Search for Another Location

Airport or City:

Trip Planner

Search our weather history database for the weather conditions in past years. The results will help you decide how hot, cold, wet, or windy it might be!

Date:

Astronomy

Aug. 20, 2013 Rise Set
Actual Time 6:51 AM EDT 8:47 PM EDT
Civil Twilight 6:19 AM EDT 9:19 PM EDT
Nautical Twilight 5:39 AM EDT 9:58 PM EDT
Astronomical Twilight 4:55 AM EDT 10:42 PM EDT
Moon 8:14 PM EDT (8/20) 6:22 AM EDT (8/20)
Length of Visible Light 14h 59m
Length of Day
13h 55m
Full, 100% of the Moon is Illuminated
Aug 20
Full
Aug 20
Full
Aug 28
Last Quarter
Sep 5
New
Sep 12
First Quarter

Hourly Weather History & Observations

Time (EDT) Temp. Heat Index Dew Point Humidity Pressure Visibility Wind Dir Wind Speed Gust Speed Precip Events Conditions
12:56 AM 72.0 °F - 60.1 °F 66% 29.92 in - SW 8.1 mph - N/A   Unknown
1:56 AM 72.0 °F - 60.1 °F 66% 29.92 in - SW 9.2 mph - N/A   Unknown
2:56 AM 70.0 °F - 61.0 °F 73% 29.91 in - SW 9.2 mph - N/A   Unknown
3:56 AM 69.1 °F - 61.0 °F 75% 29.91 in - SW 10.4 mph - N/A   Unknown
4:56 AM 69.1 °F - 61.0 °F 75% 29.92 in - SW 11.5 mph - N/A   Unknown
5:56 AM 68.0 °F - 61.0 °F 78% 29.93 in - SW 9.2 mph - N/A   Unknown
6:56 AM 68.0 °F - 61.0 °F 78% 29.94 in - SW 11.5 mph - N/A   Unknown
7:56 AM 69.1 °F - 61.0 °F 75% 29.96 in - Variable 3.5 mph - N/A   Unknown
8:56 AM 71.1 °F - 62.1 °F 73% 29.96 in - SSW 10.4 mph 17.3 mph N/A   Unknown
9:56 AM 75.9 °F - 63.0 °F 64% 29.96 in - SSW 10.4 mph - N/A   Unknown
10:56 AM 79.0 °F - 64.0 °F 60% 29.96 in - Variable 6.9 mph - N/A   Unknown
11:56 AM 82.0 °F 83.4 °F 64.0 °F 54% 29.96 in - SSW 9.2 mph - N/A   Unknown
12:56 PM 86.0 °F 87.3 °F 64.0 °F 48% 29.95 in - South 8.1 mph - N/A   Unknown
1:56 PM 86.0 °F 86.8 °F 63.0 °F 46% 29.94 in - SSW 8.1 mph 19.6 mph N/A   Unknown
2:56 PM 86.0 °F 86.8 °F 63.0 °F 46% 29.94 in - SSW 9.2 mph 17.3 mph N/A   Unknown
3:56 PM 87.1 °F 87.5 °F 62.1 °F 43% 29.92 in - South 16.1 mph 23.0 mph N/A   Unknown
4:56 PM 87.1 °F 88.3 °F 64.0 °F 46% 29.91 in - South 10.4 mph 20.7 mph N/A   Unknown
5:56 PM 84.0 °F 84.5 °F 62.1 °F 47% 29.91 in - South 13.8 mph 19.6 mph N/A   Unknown
6:56 PM 82.9 °F 84.0 °F 63.0 °F 51% 29.91 in - South 11.5 mph 19.6 mph N/A   Unknown
7:56 PM 80.1 °F 81.5 °F 63.0 °F 56% 29.91 in - South 8.1 mph - N/A   Unknown
8:56 PM 77.0 °F - 63.0 °F 62% 29.91 in - South 5.8 mph - N/A   Unknown
9:56 PM 75.0 °F - 63.0 °F 66% 29.92 in - South 9.2 mph - N/A   Unknown
10:56 PM 73.9 °F - 63.0 °F 68% 29.92 in - South 8.1 mph - N/A   Unknown
11:56 PM 73.0 °F - 63.0 °F 71% 29.92 in - South 6.9 mph 16.1 mph N/A   Unknown